Weather History for KRVS - January, 2014

Change the Weather History Date:

Tuesday, January 14, 2014

  Actual Average (KTUL) Record (KTUL)
Temperature  
Mean Temperature 41 °F 38 °F  
Max Temperature 54 °F 48 °F 75 °F (1952)
Min Temperature 24 °F 27 °F -4 °F (1916)
Degree Days  
Heating Degree Days 24 28  
Month to date heating degree days 392  
Since 1 July heating degree days 1820  
Moisture  
Dew Point 20 °F    
Average Humidity 41    
Maximum Humidity 71    
Minimum Humidity 22    
Precipitation  
Precipitation 0.00 in 0.05 in 0.65 in (1937)
Month to date precipitation 0.72  
Year to date precipitation 0.72  
Sea Level Pressure  
Sea Level Pressure 30.12 in    
Wind  
Wind Speed 4 mph (NW)    
Max Wind Speed 14 mph    
Max Gust Speed 24 mph    
Visibility 10 miles    
Events      
T = Trace of Precipitation, MM = Missing Value Source: NWS Daily Summary

Daily Weather History Graph

Daily Weather History Graph

Search for Another Location

Airport or City:

Trip Planner

Search our weather history database for the weather conditions in past years. The results will help you decide how hot, cold, wet, or windy it might be!

Date:

Astronomy

Jan. 14, 2014 Rise Set
Actual Time 7:34 AM CST 5:32 PM CST
Civil Twilight 7:06 AM CST 6:00 PM CST
Nautical Twilight 6:34 AM CST 6:31 PM CST
Astronomical Twilight 6:03 AM CST 7:02 PM CST
Moon 4:37 PM CST (1/14) 6:10 AM CST (1/14)
Length of Visible Light 10h 54m
Length of Day
9h 58m
Waxing Gibbous, 98% of the Moon is Illuminated
Jan 14
Waxing Gibbous
Jan 15
Full
Jan 23
Last Quarter
Jan 30
New
Feb 6
First Quarter

Hourly Weather History & Observations

Time (CST) Temp. Windchill Dew Point Humidity Pressure Visibility Wind Dir Wind Speed Gust Speed Precip Events Conditions
12:53 AM 34.0 °F - 23.0 °F 64% 29.94 in 10.0 mi Calm Calm - N/A   Clear
1:53 AM 44.1 °F 42.5 °F 18.0 °F 35% 29.92 in 10.0 mi West 3.5 mph - N/A   Clear
2:53 AM 44.1 °F 40.8 °F 17.1 °F 34% 29.93 in 10.0 mi WSW 5.8 mph - N/A   Clear
3:53 AM 44.1 °F 42.5 °F 17.1 °F 34% 29.91 in 10.0 mi WSW 3.5 mph - N/A   Clear
4:53 AM 44.1 °F 40.8 °F 17.1 °F 34% 29.91 in 10.0 mi WSW 5.8 mph - N/A   Clear
5:53 AM 41.0 °F - 17.1 °F 38% 29.93 in 10.0 mi Calm Calm - N/A   Clear
6:53 AM 41.0 °F - 21.0 °F 45% 29.96 in 10.0 mi Calm Calm - N/A   Partly Cloudy
7:53 AM 46.9 °F - 19.9 °F 34% 30.01 in 10.0 mi NW 8.1 mph - N/A   Overcast
8:53 AM 48.0 °F - 25.0 °F 41% 30.05 in 10.0 mi NNW 6.9 mph - N/A   Clear
9:53 AM 50.0 °F - 32.0 °F 50% 30.09 in 10.0 mi NNW 5.8 mph - N/A   Overcast
10:53 AM 51.1 °F - 33.1 °F 50% 30.13 in 10.0 mi North 9.2 mph 19.6 mph N/A   Overcast
11:53 AM 52.0 °F - 30.0 °F 43% 30.13 in 10.0 mi NNW 9.2 mph 20.7 mph N/A   Mostly Cloudy
12:53 PM 53.1 °F - 28.0 °F 38% 30.14 in 10.0 mi NNW 13.8 mph 24.2 mph N/A   Clear
1:53 PM 54.0 °F - 21.9 °F 29% 30.15 in 10.0 mi North 11.5 mph 20.7 mph N/A   Clear
2:53 PM 53.1 °F - 18.0 °F 25% 30.18 in 10.0 mi North 13.8 mph 23.0 mph N/A   Partly Cloudy
3:53 PM 51.1 °F - 14.0 °F 23% 30.21 in 10.0 mi NNW 9.2 mph 18.4 mph N/A   Clear
4:53 PM 48.0 °F - 10.0 °F 22% 30.25 in 10.0 mi NNW 10.4 mph 17.3 mph N/A   Clear
5:53 PM 44.1 °F - 12.9 °F 28% 30.27 in 10.0 mi Calm Calm - N/A   Clear
6:53 PM 42.1 °F 40.2 °F 16.0 °F 35% 30.30 in 10.0 mi NW 3.5 mph - N/A   Clear
7:53 PM 37.9 °F 35.5 °F 14.0 °F 38% 30.31 in 10.0 mi WNW 3.5 mph - N/A   Clear
8:53 PM 32.0 °F - 16.0 °F 52% 30.32 in 10.0 mi Calm Calm - N/A   Clear
9:53 PM 30.0 °F - 16.0 °F 56% 30.32 in 10.0 mi Calm Calm - N/A   Clear
10:53 PM 28.0 °F - 16.0 °F 61% 30.31 in 10.0 mi Calm Calm - N/A   Clear
11:53 PM 24.1 °F - 16.0 °F 71% 30.32 in 10.0 mi Calm Calm - N/A   Clear